Regional Weather Roundup
Issued by NWS

Home | Current Version | Previous Version | Text Only | Print | Product List | Glossary On
Versions: 1 2 3 4 5 6 7 8 9 10 11 12 13 14 15 16 17 18 19 20 21 22 23 24 25 26 27 28 29 30 31 32 33 34 35 36 37 38 39 40 41 42 43 44 45 46 47 48 49 50
000
ASHW40 PHFO 221410
RWRHI

WEATHER ROUNDUP FOR HAWAII
NATIONAL WEATHER SERVICE HONOLULU HI
400 AM HST MON DEC 22 2014

THIS IS AN AUTOMATED REPORT THAT HAS NOT BEEN QUALITY CONTROLLED.

NOTE..."FAIR" INDICATES FEW OR NO CLOUDS BELOW 12,000 FEET WITH NO
SIGNIFICANT WEATHER AND/OR OBSTRUCTIONS TO VISIBILITY.

* - THESE SITES REPORT LIMITED FIELDS

HIZ001>004-221500-
KAUAI-NIIHAU-

CITY           SKY/WX    TMP DP  RH WIND       PRES   REMARKS
LIHUE APT      CLOUDY    69  64  84 N24G33    30.04R HAZE
PORT ALLEN*      N/A     66 N/A N/A NE3         N/A
POIPU*           N/A     68 N/A N/A N13G29      N/A
PRINCEVILLE*     N/A     70 N/A N/A MISG        N/A
KOKOLE POINT*  NOT AVBL
MOLOAA DAIRY*  NOT AVBL
WAIMEA HTS*    NOT AVBL
PUU OPAE*      NOT AVBL
PUU LUA*       NOT AVBL
MAKAHA RIDGE*  NOT AVBL
$$

HIZ005>011-221500-
OAHU-

CITY           SKY/WX    TMP DP  RH WIND       PRES   REMARKS
HONOLULU       PTCLDY    69  64  84 NW3       29.97F
KALAELOA       CLEAR     68  65  90 CALM      29.99S
KANEOHE MCB    CLOUDY    72  69  90 CALM      29.99R
WHEELER FIELD  FAIR      67  64  90 NW7       29.99F
BELLOWS*       NOT AVBL
KAHUKU*        NOT AVBL
WHEELER*       NOT AVBL
WAIANAE HARBOR NOT AVBL
DILLINGHAM*      N/A     68  68 100 S2          N/A
KAHUKU TRN*      N/A     68  64  88 N10G21      N/A
KAWAILOA*        N/A     66  64  94 N3G9        N/A
KII*             N/A     73  70  88 CALM        N/A
MAKUA RANGE*     N/A     70  64  83 NE8G18      N/A
OAHU FOREST NW NOT AVBL
SCHOFIELD BRK*   N/A    N/A N/A N/A MISG        N/A
SCHOFIELD S*   NOT AVBL
WAIANAE VLY*   NOT AVBL
KUAOKALA*      NOT AVBL
HONOULIUULI*   NOT AVBL
MOKUOLOE IS*     N/A    N/A N/A N/A MISG        N/A
PALEHUA*       NOT AVBL
WAIAWA PHB*    NOT AVBL
$$

HIZ012>013-221500-
MOLOKAI-

CITY           SKY/WX    TMP DP  RH WIND       PRES   REMARKS
MOLOKAI AIRPT  PTCLDY    67  66  97 NW6       29.99F
KALAUPAPA      NOT AVBL
MAKAPULAPAI*   NOT AVBL
MOLOKAI 1*     NOT AVBL
PUU ALII*      NOT AVBL
$$

HIZ016-221500-
KAHOOLAWE-

CITY           SKY/WX    TMP DP  RH WIND       PRES   REMARKS
KAHOOLAWE*     NOT AVBL
HAKIOAWA*      NOT AVBL
HONOKANAIA*      N/A     70  64  81 VRB3      29.98F
KANELOA*         N/A     72  66  83 N6        29.19F
KEALIALALO*    NOT AVBL
LUA MAKIKA*    NOT AVBL
$$

HIZ014>015-221500-
LANAI-

CITY           SKY/WX    TMP DP  RH WIND       PRES   REMARKS
LANAI CITY     FAIR      64  64 100 N5        30.02F
LANAI 1*       NOT AVBL
$$

HIZ017>028-221500-
MAUI-

CITY           SKY/WX    TMP DP  RH WIND       PRES   REMARKS
KAHULUI        CLEAR     64  58  80 SE6       29.96F
KAPALUA-W MAUI NOT AVBL
HANA AIRPORT   PTCLDY    64  63  94 S6        29.98F
HANA*          NOT AVBL
HALEAKALA SUMM   N/A     34  34 100 S7G26       N/A  WCI  28
MAALAEA BAY*   NOT AVBL
HALEAKALA*     NOT AVBL
KAUPO GAP*     NOT AVBL
KULA 1*          N/A     46  43  87 CALM        N/A
$$

HIZ023>026-221500-
BIG ISLAND OF HAWAII COAST AND LOWER SLOPES-

CITY           SKY/WX    TMP DP  RH WIND       PRES   REMARKS
KAILUA KONA    CLOUDY    75  65  70 N6        29.95S
HILO           CLEAR     66  57  72 SW8       29.96S
HONOKAA*       NOT AVBL
KAWAIHAE MWT*  NOT AVBL
KAWAIHAE*        N/A     73 N/A N/A E2          N/A
SOUTH POINT*   NOT AVBL
UPOLU AIRPORT* NOT AVBL
KAMUELA*       CLOUDY    55  54  94 CALM      30.07S
HAKALAU*         N/A     39  34  81 W5          N/A
KALOKO-HONOKO* NOT AVBL
PALI 2*          N/A     57  55  94 N6          N/A
KEALAKOMO*       N/A     90  86  89 N3          N/A  HX 119
KAUPULEHU*     NOT AVBL
KAPAPALA*        N/A     59  55  87 CALM        N/A
LOWER KAHUKU*  NOT AVBL
PUHE CS*       NOT AVBL
PUHO CS*       NOT AVBL
PTA KEAMUKU*     N/A     55  54  94 CALM        N/A
WAIKOLOA*      NOT AVBL
$$

HIZ027>028-221500-
BIG ISLAND OF HAWAII INTERIOR AND SUMMMITS-

CITY           SKY/WX    TMP DP  RH WIND       PRES   REMARKS
BRADSHAW FIELD CLOUDY    42  35  75 SE2       30.25F
MK VISITOR CEN NOT AVBL
MAUNA KEA*       N/A     34 -22   8 W3          N/A
MAUNA LOA*       N/A     37 -24   6 MISG        N/A
MAUNA LOA 1*   NOT AVBL
PTA KIPUKA*      N/A     48  45  87 E3          N/A
PTA RANGE 17*    N/A     46  43  87 SE1         N/A
PTA WEST*        N/A     48  45  87 SE9         N/A
NENE CABIN*    NOT AVBL
AHUMOA*        NOT AVBL
PTA PORTABLE*  NOT AVBL
PUU MALI*      NOT AVBL
$$

HIC003-221500-
NORTHWEST ISLANDS-

CITY           SKY/WX    TMP DP  RH WIND       PRES   REMARKS
MIDWAY ISLAND  PTCLDY    63  46  55 E12       30.38R
MIDWAY NOS*    NOT AVBL
FRENCH FRIGATE NOT AVBL
$$

PHZ110>124-180-221500-
BUOY REPORTS

STATION/POSITION TIME  TEMP    WIND        PRES    WAVE   SWELL
                       AIR SEA DIR/SP/G            HT/PER HT/DIR
                 (UTC) (F)     (DEG/KT/KT) (MB)    (FT/S) (FT/D)
BUOY 51001       NOT AVBL
BUOY 51101       1400   70 76   10/ 16/ 19 1019.9F  13/16  11/280
BUOY 51100       NOT AVBL
BUOY 51003       1300   76 79   20/ 14/ 17 1015.0F  11/16  10
BUOY 51004       1345   77 78   80/ 14/ 19 1013.1F   9/10   8/110
BARBERS PT BUOY  NOT AVBL
WAIMEA BAY BUOY  1400      78                N/A     9/17   8/310
KAILUA BAY BUOY  1400      77                N/A     6/10   3/ 80
LANAI BUOY       1400      78                N/A     4/17   3/280
BARBERS PT 2     1400      78                N/A     7/17   7/310
PAUWELA MAUI     1400      77                N/A    10/17   8/320
HILO             1400      78                N/A     8/10   5/110
KANEOHE BAY BUOY 1400      77                N/A     5/ 9   2/ 10
HANALEI KAUAI    NOT AVBL
KAHULUI HARBOR   1400   69 77  100/  2/  4 1014.3F
HONOLULU HARBOR  1400   73     360/  1/  3 1015.4F
KILO NALU        NOT AVBL
HILO HARBOR      1400   67     190/  6/  7 1013.9R
MOKUOLOE         1400   70 76  190/  2/  3 1015.6S
NAWILIWILI       1400      77                N/A
WHOTS BUOY       NOT AVBL
BUOY 51028       NOT AVBL
$$

......................KEY........................................
  SKY/WX - SKY CONDITIONS/PRESENT WEATHER
  TMP    - TEMPERATURE IN FAHRENHEIT
  DWPT   - DEWPOINT IN FAHRENHEIT
  RH     - RELATIVE HUMIDITY IN PERCENT
  WIND   - DIRECTION AND SPEED /MPH FOR ISLANDS...KTS FOR BUOYS/
  PRES   - MEAN SEA LEVEL PRESSURE IN INCHES OF HG
  VSB    - VISIBILITY IN MILES
  HX     - HEAT INDEX
  WCI    - WIND CHILL INDEX
  VRB    - VARIABLE WIND DIRECTION
  N/A    - NOT AVAILABLE



USA.gov is the U.S. government's official web portal to all federal, state and local government web resources and services.